Showing default

COSMOS 88, 1586

Orbit data source: Space-Track

COSMOS 88, 1586 is a payload satellite owned by OKB-10 (CIS) in LEO that was launched on Sat, 18 Sep 1965 UTC via a KOSMOS 65S3 launch vehicle from the Tyuratam Missile And Space Complex (TTMTR). Payload-class satellites include a variety of spacecraft equipped with specific instruments for various scientific and technological missions. These include communications satellites like Starlink; space stations such as the ISS; scientific satellites like the Hubble; Earth observation satellites from companies like Planet Labs, Umbra, and HawkEye 360; GPS; miniature CubeSats for education and research; and military/defense satellites.

Loading next visibility...
Identifier
1586, 1965-073C
Orbit
LEO
Country
Flag of CISCIS
Related business
Manufacturer
OKB-10
Mission
Spacecraft
Bus & Motor
STRELA-1 11F610, Unknown motor
Mass
50 kg wet, 50 kg dry
Launch date (UTC)
1965-09-18 (61 years ago)
Launch vehicle
KOSMOS 65S3
Launch site
Tyuratam Missile And Space Complex (TTMTR)
Object type
Payload
Rocket body
Debris
Shape & HBR
Unknown
Radar Cross Section
Medium (>0.1 m² and <1 m²)

Expand to show TLE details & history
Last TLE update: 7 hours ago

TLE from 7 hours ago
0 COSMOS 88
1 01586U 65073C   26174.92493668 -.00000079  00000-0  10100-3 0  9990
2 01586  56.0619   4.6660 0187956 176.3349 333.5732 12.43345575759332
Epoch: 2026-06-23T22:11Z
TLE epoch observation values (Epoch: 2026-06-23T22:11:54.529Z)
Latitude
25.41139°
Longitude
-78.94903°
Altitude
1,361.804 km
Speed
7.24 km/s
True Right ascension
11h 04m 28s
True Declination
25° 17' 19"
Sunlit
Object was in daylight at epoch
Visualization orbit readout
Latitude
Unknown
Longitude
Unknown
Altitude
Unknown
Speed
Unknown
Apparent Right ascension
Unknown
Apparent Declination
Unknown
Sunlit
N/A
Visualization observer readout
Local Sidereal Time
16:43:14
Azimuth
Unknown
Elevation
Unknown
Doppler factor
Unknown
Orbital elements
Apogee altitude
1,640.205 km
Perigee altitude
1,344.347 km
Semi-major axis
7,870.413 km
Eccentricity
0.0188
Inclination
56.0619°
RAAN
4.666°
Arg. of periapsis
176.3349°
True anomaly
332.5941°
Mean anomaly
333.5732°
Eccentric anomaly
333.08573°
Mean motion
3.10847 °/min
Orbital period
115.81 mins
BSTAR
0.000101
Loading maneuver chart data...
Computing Atmospheric mass density...
Loading historical data...
Loading historical data...
Loading historical data...
Loading historical data...
Loading historical data...
Loading historical data...
Loading historical data...

Documentation

Showing up to 5 results
|